Dewpoint
68 67 66 66 65 68 68 67 69 70 69 69 69 69 69 69 69 69 69 68 67 67 68 67 67 69 63 61 66 61 62 64 57 66 69 69 71 68 68 68 64 63 57
67 66 65 65 65 65 69 67 68 68 68 67 67 67 67 67 67 67 67 66 65 65 66 66 67 62 68 70 60 70 65 66 62 68 67 67 68 68 68 68 61 56 56
66 65 66 65 65 66 66 68 68 67 67 67 66 66 66 66 66 67 65 64 64 63 65 66 66 66 69 70 65 68 63 63 64 68 68 69 63 64 64 66 64 63 52
65 66 64 65 65 66 67 67 68 67 66 66 67 66 66 66 66 65 64 63 63 63 63 62 60 62 65 67 68 67 66 66 66 68 67 65 62 65 62 60 60 59 57
65 66 63 63 64 65 66 67 67 67 67 67 66 65 65 65 65 65 65 64 63 62 61 59 58 59 59 60 65 66 68 66 62 66 67 66 60 60 60 57 57 54 57
63 62 63 63 63 66 63 64 65 65 65 66 65 64 65 63 60 62 64 63 63 61 59 57 56 53 54 55 56 56 58 67 66 60 68 65 62 57 54 51 49 49 48
63 62 63 62 62 65 66 65 66 65 66 66 66 66 64 62 57 59 61 65 60 58 59 59 54 48 53 52 55 55 55 55 58 64 63 59 57 57 56 55 55 51 48
64 62 63 63 63 63 63 66 67 68 66 64 63 62 59 55 53 55 59 61 59 57 56 56 56 56 52 55 54 52 51 51 54 52 56 54 53 54 55 52 54 54 51
65 64 64 66 66 66 66 66 65 64 62 61 60 58 56 53 49 50 57 58 56 53 51 51 50 50 51 51 55 53 49 46 47 49 48 48 48 48 49 45 45 42 40
65 66 67 65 62 59 59 61 63 61 58 55 54 54 52 51 47 47 52 50 51 47 48 49 48 48 48 49 54 54 50 50 51 52 49 49 50 48 49 50 44 41 39
59 58 57 56 56 54 54 55 58 56 54 53 51 51 51 50 48 46 46 50 47 44 43 43 43 45 44 44 46 48 49 51 49 49 47 45 46 45 44 44 48 44 39
55 54 54 53 52 52 51 50 50 49 48 47 47 47 48 48 47 47 46 47 47 44 44 45 44 43 42 43 42 43 43 45 44 45 44 44 41 39 38 41 46 46 44
51 51 51 51 51 51 50 50 49 49 48 47 46 45 45 47 47 46 46 47 47 46 47 46 45 43 42 44 44 44 45 44 43 41 40 39 36 35 41 42 41 46 47
51 51 52 51 52 52 52 52 50 49 48 47 46 45 45 46 47 48 48 48 47 47 46 46 44 43 42 42 42 43 40 38 37 37 35 34 33 31 29 29 28 28 27
52 51 50 48 46 45 44 43 43 44 45 44 46 43 42 41 40 40 43 41 40 40 42 40 38 38 37 37 37 37 36 36 35 35 33 30 26 24 24 24 25 25 25
47 45 44 41 39 38 37 37 41 40 39 37 37 35 36 38 38 38 38 38 38 40 37 36 36 35 35 34 33 33 33 33 33 32 30 28 25 23 22 23 25 25 26
48 45 41 39 38 37 36 34 32 35 38 38 37 37 36 37 37 37 37 37 37 37 34 34 34 34 33 33 33 32 31 34 39 31 29 28 26 24 22 22 23 24 26
45 43 39 38 38 38 38 37 36 36 34 32 36 35 36 37 36 36 36 37 32 32 29 30 32 35 36 34 33 32 32 32 32 30 29 27 25 23 22 22 23 27 27
41 39 41 40 38 39 38 37 36 37 36 36 34 35 35 36 36 36 38 33 27 26 26 28 30 31 32 33 33 33 34 31 28 29 26 25 23 22 23 24 24 29 29
43 47 43 38 38 37 36 36 36 37 38 36 34 33 34 33 32 30 29 28 26 25 25 26 27 29 30 32 31 31 29 29 29 26 25 24 23 23 22 23 25 27 27
39 40 48 40 39 38 38 38 38 36 36 34 33 30 36 29 26 25 24 25 25 26 26 27 24 25 27 30 29 29 27 26 26 26 24 23 24 23 24 24 26 27 26
41 40 39 39 41 41 39 39 41 40 36 34 31 27 33 27 22 24 26 26 27 28 28 29 25 24 24 27 30 29 27 26 28 27 26 24 23 23 23 22 24 25 24
40 39 39 41 43 44 40 43 41 36 34 32 30 25 23 23 24 26 28 28 29 29 29 30 28 25 25 29 30 30 26 27 28 28 26 24 24 24 23 23 22 21 21
38 38 35 37 39 39 40 36 35 34 32 31 27 26 25 27 26 29 30 30 30 30 32 30 29 29 31 31 31 31 31 31 30 27 26 24 25 26 25 24 21 22 21
38 37 35 36 35 33 35 34 33 31 29 27 24 25 26 28 29 29 31 31 30 30 28 27 26 27 26 28 28 31 29 27 31 26 24 25 27 29 24 22 23 22 22
36 37 35 36 35 35 35 33 33 32 28 26 25 26 27 27 28 30 31 31 30 28 30 31 30 27 26 31 33 29 29 27 28 27 24 25 27 26 25 25 23 23 22
Lifted_Index
-3 -3 -3 -2 -1 -1 -1 -2 -2 -2 -2 -2 -2 -2 -2 -2 -1 -1 -1 -0 0 0 -0 -1 -1 -1 -1 -1 -1 -0 -1 -1 -1 -1 -2 -3 -3 -3 -2 -2 -1 -1 -1
-3 -3 -3 -2 -1 -1 -2 -2 -2 -2 -2 -1 -1 -1 -1 -1 -0 0 0 0 1 1 1 0 -0 -1 -1 -1 -1 -1 -1 -1 -1 -1 -2 -2 -2 -2 -2 -1 -0 -0 -0
-3 -3 -3 -2 -2 -2 -2 -2 -2 -2 -1 -1 -1 -0 -0 -0 0 1 1 1 2 2 2 1 1 0 -0 -1 -0 -1 -1 -1 -1 -1 -1 -1 -1 -1 -1 -0 0 0 0
-3 -3 -3 -2 -2 -2 -2 -2 -2 -2 -1 -1 -0 0 0 0 1 1 1 1 2 2 3 2 2 1 1 0 0 -0 -1 -1 -1 -1 -1 -1 -0 -0 0 0 1 1 1
-3 -3 -2 -2 -2 -2 -2 -2 -2 -1 -1 -1 -0 0 1 1 1 1 2 2 2 2 3 3 3 2 2 2 1 1 -0 -1 -1 -1 -1 -1 -0 0 1 1 1 2 2
-3 -3 -2 -2 -2 -2 -1 -1 -1 -1 -1 -1 -1 -0 0 1 2 2 2 2 2 3 3 3 3 3 3 3 2 1 1 -0 -0 -0 -0 0 1 2 2 2 2 3 4
-2 -2 -2 -1 -1 -1 -1 -1 -1 -1 -1 -1 -0 0 1 1 2 2 2 2 3 3 3 4 4 3 4 4 3 3 2 2 1 1 1 2 3 4 4 5 4 5 5
-2 -2 -2 -1 -1 -1 -1 -1 -1 -1 -1 0 1 2 2 1 1 1 2 2 2 3 3 3 3 4 4 5 4 3 3 4 5 5 6 6 7 7 7 7 7 6 6
-2 -2 -1 -1 -1 -1 -1 -1 -0 0 1 2 3 3 3 2 1 1 2 2 2 2 3 3 4 4 5 6 5 4 4 6 9 10 10 10 10 10 10 9 8 7 7
-2 -1 -1 -0 -0 -0 -0 -0 0 1 2 3 3 4 3 2 2 2 3 2 2 2 3 4 5 6 6 7 7 6 6 8 10 11 11 11 11 11 11 11 10 9 9
-1 -1 -0 0 0 0 0 0 1 1 2 2 3 3 3 3 4 4 4 4 3 3 4 5 7 8 8 8 8 9 9 10 11 11 11 11 11 11 12 12 11 11 11
-0 0 0 0 0 1 1 1 1 1 1 1 2 3 4 5 6 6 6 6 5 5 5 7 8 9 9 9 10 11 11 11 11 11 11 11 11 12 12 13 13 13 13
1 1 1 1 1 2 3 3 3 2 2 2 2 3 5 6 7 7 7 7 7 7 7 8 10 10 11 11 12 12 12 12 12 12 12 12 12 13 14 14 14 14 14
2 2 2 2 3 4 5 5 5 5 5 5 5 6 7 8 8 9 9 9 10 10 10 11 12 13 13 14 14 14 14 13 13 13 14 14 14 15 15 16 16 16 16
3 3 3 4 5 6 7 8 9 9 10 10 10 10 11 11 12 13 13 13 14 13 13 14 14 14 14 15 15 15 15 15 15 15 15 16 16 16 17 17 17 17 16
4 5 5 6 7 8 9 10 12 14 14 14 14 15 15 16 16 17 17 16 16 15 15 14 14 15 15 15 15 15 15 16 16 16 16 17 17 18 18 17 17 16 16
7 7 8 9 9 10 10 11 13 15 15 16 16 16 17 18 18 18 17 17 16 15 15 15 15 15 15 15 15 15 16 16 16 16 16 17 17 17 17 16 16 15 15
10 10 10 10 10 10 10 11 12 13 14 14 15 16 16 17 18 17 17 16 15 15 15 15 15 15 15 15 15 15 15 15 15 15 15 16 16 16 16 15 14 14 13
9 9 9 9 9 9 9 10 10 11 12 13 13 14 15 16 17 16 16 15 15 15 15 15 15 15 15 14 14 14 14 14 14 14 14 15 15 15 14 14 13 13 12
8 8 8 8 8 9 9 9 10 10 11 12 13 14 14 15 15 15 16 15 15 15 15 15 14 14 14 14 13 13 13 13 13 13 13 14 14 14 14 13 12 12 12
7 7 8 8 8 8 9 9 10 10 11 12 13 14 15 15 15 15 15 15 15 14 14 13 13 13 13 12 12 12 11 11 11 11 12 12 13 13 13 13 12 11 11
7 7 7 8 8 8 9 9 10 10 11 12 13 14 15 15 15 15 14 14 13 13 13 12 12 11 11 11 10 10 9 9 9 10 10 11 11 12 12 12 12 11 11
7 7 7 8 8 9 9 9 10 10 11 12 13 14 14 14 14 13 13 12 12 12 11 11 11 10 10 10 9 9 8 8 9 9 10 10 11 11 12 12 12 11 11
7 7 8 8 8 9 9 9 10 11 11 12 12 13 13 13 12 12 11 11 11 11 10 10 10 10 10 9 9 9 8 8 9 10 11 11 11 11 11 11 12 12 11
7 8 8 8 9 9 9 10 10 11 11 12 12 12 12 11 11 10 10 10 10 10 10 9 9 10 10 10 10 9 9 9 10 12 13 12 11 11 11 11 11 11 11
8 8 8 8 9 9 9 9 10 10 11 11 11 11 10 10 10 10 10 10 10 9 9 9 9 10 10 10 10 10 10 10 12 13 14 13 11 11 11 11 11 11 11